Powrót do katalogu

STARLINK-31099

AktywnyŁącznośćVLEO
NORAD 58781·PAYLOAD·🇺🇸 United States

Wystrzelony Jan 14, 2024 z Vandenberg Space Force Base

Loading…

Następne Przeloty (najbliższe 24 godziny)

TLE

ŚwieżeSource: CelesTrak SupGP

Epoka: Sep 15, 2026, 03:11 UTC

1 58781C 24011S   26258.13312500 -.00046865  00000+0 -13847-2 0  2588
2 58781  53.1582 212.6322 0001306  86.7002 153.6374 15.34412775    15

Śledź STARLINK-31099 w czasie rzeczywistym z AllMySat

Download on the App Store